Time,TemperatureF,DewpointF,PressureIn,WindDirection,WindDirectionDegrees,WindSpeedMPH,WindSpeedGustMPH,Humidity,HourlyPrecipIn,Conditions,Clouds,dailyrainin,SoftwareType,DateUTC
2013-09-14 00:05:00,76.7,69.3,29.75,North,-999,0.0,0.0,78,0.00,,,-99.99,WeatherLink 5.7,2013-09-14 04:05:00,
2013-09-14 00:20:00,76.6,69.6,29.75,North,-999,0.0,0.0,79,0.00,,,-99.99,WeatherLink 5.7,2013-09-14 04:20:00,
2013-09-14 00:35:00,76.2,69.2,29.75,North,-999,0.0,0.0,79,0.00,,,-99.99,WeatherLink 5.7,2013-09-14 04:35:00,
2013-09-14 00:50:00,76.0,70.1,29.75,North,-999,0.0,0.0,82,0.00,,,-99.99,WeatherLink 5.7,2013-09-14 04:50:00,
2013-09-14 01:05:00,76.0,69.7,29.75,North,-999,0.0,0.0,81,0.00,,,-99.99,WeatherLink 5.7,2013-09-14 05:05:00,
2013-09-14 01:20:00,76.0,70.1,29.75,North,-999,0.0,0.0,82,0.00,,,-99.99,WeatherLink 5.7,2013-09-14 05:20:00,
2013-09-14 01:35:00,76.0,70.1,29.75,North,-999,0.0,0.0,82,0.00,,,-99.99,WeatherLink 5.7,2013-09-14 05:35:00,
2013-09-14 01:50:00,76.0,70.1,29.75,North,-999,0.0,0.0,82,0.00,,,-99.99,WeatherLink 5.7,2013-09-14 05:50:00,
2013-09-14 02:05:00,75.8,69.9,29.75,North,-999,0.0,0.0,82,0.00,,,-99.99,WeatherLink 5.7,2013-09-14 06:05:00,
2013-09-14 02:20:00,75.6,70.1,29.75,North,-999,0.0,0.0,83,0.00,,,-99.99,WeatherLink 5.7,2013-09-14 06:20:00,
2013-09-14 02:35:00,75.4,70.2,29.75,North,-999,0.0,0.0,84,0.00,,,-99.99,WeatherLink 5.7,2013-09-14 06:35:00,
2013-09-14 02:50:00,75.3,70.1,29.75,North,-999,0.0,0.0,84,0.00,,,-99.99,WeatherLink 5.7,2013-09-14 06:50:00,
2013-09-14 03:05:00,75.4,70.2,29.75,North,-999,0.0,0.0,84,0.00,,,-99.99,WeatherLink 5.7,2013-09-14 07:05:00,
2013-09-14 03:20:00,75.3,70.1,29.75,North,-999,0.0,0.0,84,0.00,,,-99.99,WeatherLink 5.7,2013-09-14 07:20:00,
2013-09-14 03:35:00,75.3,70.1,29.75,North,-999,0.0,0.0,84,0.00,,,-99.99,WeatherLink 5.7,2013-09-14 07:35:00,
2013-09-14 03:50:00,75.1,69.9,29.75,North,-999,0.0,0.0,84,0.00,,,-99.99,WeatherLink 5.7,2013-09-14 07:50:00,
2013-09-14 04:05:00,74.9,70.4,29.75,North,-999,0.0,0.0,86,0.00,,,-99.99,WeatherLink 5.7,2013-09-14 08:05:00,
2013-09-14 04:20:00,74.9,70.1,29.75,North,-999,0.0,0.0,85,0.00,,,-99.99,WeatherLink 5.7,2013-09-14 08:20:00,
2013-09-14 04:35:00,74.9,70.4,29.75,North,-999,0.0,0.0,86,0.00,,,-99.99,WeatherLink 5.7,2013-09-14 08:35:00,
2013-09-14 04:50:00,74.7,70.2,29.75,North,-999,0.0,0.0,86,0.00,,,-99.99,WeatherLink 5.7,2013-09-14 08:50:00,
2013-09-14 05:05:00,74.7,70.2,29.75,North,-999,0.0,0.0,86,0.00,,,-99.99,WeatherLink 5.7,2013-09-14 09:05:00,
2013-09-14 05:20:00,74.7,70.6,29.75,North,-999,0.0,0.0,87,0.00,,,-99.99,WeatherLink 5.7,2013-09-14 09:20:00,
2013-09-14 05:35:00,74.7,70.6,29.75,North,-999,0.0,0.0,87,0.00,,,-99.99,WeatherLink 5.7,2013-09-14 09:35:00,
2013-09-14 05:50:00,74.7,70.6,29.75,North,-999,0.0,0.0,87,0.00,,,-99.99,WeatherLink 5.7,2013-09-14 09:50:00,
2013-09-14 06:06:00,74.7,70.6,29.75,North,-999,0.0,0.0,87,0.00,,,-99.99,WeatherLink 5.7,2013-09-14 10:06:00,
2013-09-14 06:20:00,74.7,70.6,29.76,North,-999,0.0,0.0,87,0.00,,,-99.99,WeatherLink 5.7,2013-09-14 10:20:00,
2013-09-14 06:35:00,74.6,70.5,29.75,North,-999,0.0,0.0,87,0.00,,,-99.99,WeatherLink 5.7,2013-09-14 10:35:00,
2013-09-14 06:50:00,74.4,70.6,29.76,North,-999,0.0,0.0,88,0.00,,,-99.99,WeatherLink 5.7,2013-09-14 10:50:00,
2013-09-14 07:05:00,74.5,70.7,29.77,North,-999,0.0,0.0,88,0.00,,,-99.99,WeatherLink 5.7,2013-09-14 11:05:00,
2013-09-14 07:20:00,74.6,70.8,29.77,North,-999,0.0,0.0,88,0.00,,,-99.99,WeatherLink 5.7,2013-09-14 11:20:00,
2013-09-14 07:35:00,74.5,71.4,29.78,North,-999,0.0,0.0,90,0.00,,,-99.99,WeatherLink 5.7,2013-09-14 11:35:00,
2013-09-14 07:50:00,74.6,71.1,29.78,North,-999,0.0,0.0,89,0.00,,,-99.99,WeatherLink 5.7,2013-09-14 11:50:00,
2013-09-14 08:05:00,74.7,71.2,29.78,North,-999,0.0,0.0,89,0.00,,,-99.99,WeatherLink 5.7,2013-09-14 12:05:00,
2013-09-14 08:20:00,75.0,71.9,29.79,North,-999,0.0,0.0,90,0.00,,,-99.99,WeatherLink 5.7,2013-09-14 12:20:00,
2013-09-14 08:35:00,75.9,72.8,29.80,North,-999,0.0,0.0,90,0.00,,,-99.99,WeatherLink 5.7,2013-09-14 12:35:00,
2013-09-14 08:50:00,76.7,73.5,29.80,North,-999,0.0,0.0,90,0.00,,,-99.99,WeatherLink 5.7,2013-09-14 12:50:00,
2013-09-14 09:05:00,77.9,74.7,29.80,North,-999,0.0,0.0,90,0.00,,,-99.99,WeatherLink 5.7,2013-09-14 13:05:00,
2013-09-14 09:20:00,79.2,75.3,29.81,North,-999,0.0,0.0,88,0.00,,,-99.99,WeatherLink 5.7,2013-09-14 13:20:00,
2013-09-14 09:35:00,80.8,76.2,29.81,North,-999,0.0,0.0,86,0.00,,,-99.99,WeatherLink 5.7,2013-09-14 13:35:00,
2013-09-14 09:50:00,82.3,76.3,29.82,North,-999,0.0,0.0,82,0.00,,,-99.99,WeatherLink 5.7,2013-09-14 13:50:00,
2013-09-14 10:05:00,83.8,77.0,29.82,North,-999,0.0,0.0,80,0.00,,,-99.99,WeatherLink 5.7,2013-09-14 14:05:00,
2013-09-14 10:20:00,84.8,77.2,29.82,North,-999,0.0,0.0,78,0.00,,,-99.99,WeatherLink 5.7,2013-09-14 14:20:00,
2013-09-14 10:35:00,84.5,75.7,29.83,North,-999,0.0,0.0,75,0.00,,,-99.99,WeatherLink 5.7,2013-09-14 14:35:00,
2013-09-14 10:50:00,84.2,75.0,29.83,North,-999,0.0,0.0,74,0.00,,,-99.99,WeatherLink 5.7,2013-09-14 14:50:00,
2013-09-14 11:05:00,85.2,75.1,29.83,North,-999,0.0,0.0,72,0.00,,,-99.99,WeatherLink 5.7,2013-09-14 15:05:00,
2013-09-14 11:20:00,86.9,75.5,29.83,North,0,0.0,5.0,69,0.00,,,-99.99,WeatherLink 5.7,2013-09-14 15:20:00,
2013-09-14 11:35:00,88.2,75.4,29.83,North,-999,0.0,0.0,66,0.00,,,-99.99,WeatherLink 5.7,2013-09-14 15:35:00,
2013-09-14 11:50:00,88.5,76.1,29.83,North,-999,0.0,0.0,67,0.00,,,-99.99,WeatherLink 5.7,2013-09-14 15:50:00,
2013-09-14 12:05:00,88.1,74.8,29.83,North,-999,0.0,0.0,65,0.00,,,-99.99,WeatherLink 5.7,2013-09-14 16:05:00,
2013-09-14 12:20:00,87.4,75.1,29.83,North,-999,0.0,0.0,67,0.00,,,-99.99,WeatherLink 5.7,2013-09-14 16:20:00,
2013-09-14 12:35:00,87.3,74.1,29.83,North,0,0.0,1.0,65,0.00,,,-99.99,WeatherLink 5.7,2013-09-14 16:35:00,
2013-09-14 12:50:00,87.6,74.4,29.83,North,-999,0.0,0.0,65,0.00,,,-99.99,WeatherLink 5.7,2013-09-14 16:50:00,
2013-09-14 13:05:00,87.3,73.6,29.83,North,0,0.0,4.0,64,0.00,,,-99.99,WeatherLink 5.7,2013-09-14 17:05:00,
2013-09-14 13:20:00,87.2,73.5,29.83,North,0,1.0,9.0,64,0.00,,,-99.99,WeatherLink 5.7,2013-09-14 17:20:00,
2013-09-14 13:35:00,87.5,73.8,29.82,North,0,1.0,7.0,64,0.00,,,-99.99,WeatherLink 5.7,2013-09-14 17:35:00,
2013-09-14 13:50:00,88.0,73.8,29.82,North,0,0.0,6.0,63,0.00,,,-99.99,WeatherLink 5.7,2013-09-14 17:50:00,
2013-09-14 14:06:00,88.4,73.7,29.82,North,0,1.0,7.0,62,0.00,,,-99.99,WeatherLink 5.7,2013-09-14 18:06:00,
2013-09-14 14:20:00,88.6,73.9,29.81,North,0,0.0,8.0,62,0.00,,,-99.99,WeatherLink 5.7,2013-09-14 18:20:00,
2013-09-14 14:35:00,88.6,73.4,29.81,North,0,0.0,7.0,61,0.00,,,-99.99,WeatherLink 5.7,2013-09-14 18:35:00,
2013-09-14 14:50:00,88.4,73.2,29.81,North,0,0.0,9.0,61,0.00,,,-99.99,WeatherLink 5.7,2013-09-14 18:50:00,
2013-09-14 15:06:00,88.4,73.2,29.80,North,0,1.0,7.0,61,0.00,,,-99.99,WeatherLink 5.7,2013-09-14 19:06:00,
2013-09-14 15:20:00,88.4,73.7,29.80,North,0,0.0,9.0,62,0.00,,,-99.99,WeatherLink 5.7,2013-09-14 19:20:00,
2013-09-14 15:35:00,88.5,73.8,29.80,North,0,1.0,10.0,62,0.00,,,-99.99,WeatherLink 5.7,2013-09-14 19:35:00,
2013-09-14 15:50:00,88.5,73.3,29.80,North,0,1.0,10.0,61,0.00,,,-99.99,WeatherLink 5.7,2013-09-14 19:50:00,
2013-09-14 16:05:00,88.3,73.6,29.80,North,0,1.0,7.0,62,0.00,,,-99.99,WeatherLink 5.7,2013-09-14 20:05:00,
2013-09-14 16:20:00,88.0,73.3,29.79,North,0,0.0,6.0,62,0.00,,,-99.99,WeatherLink 5.7,2013-09-14 20:20:00,
2013-09-14 16:35:00,87.9,72.8,29.80,North,0,1.0,10.0,61,0.00,,,-99.99,WeatherLink 5.7,2013-09-14 20:35:00,
2013-09-14 16:50:00,87.7,73.1,29.80,North,0,0.0,7.0,62,0.00,,,-99.99,WeatherLink 5.7,2013-09-14 20:50:00,
2013-09-14 17:05:00,88.0,73.3,29.80,North,0,0.0,10.0,62,0.00,,,-99.99,WeatherLink 5.7,2013-09-14 21:05:00,
2013-09-14 17:20:00,88.2,73.0,29.80,North,0,0.0,5.0,61,0.00,,,-99.99,WeatherLink 5.7,2013-09-14 21:20:00,
2013-09-14 17:35:00,88.1,73.0,29.80,North,0,0.0,9.0,61,0.00,,,-99.99,WeatherLink 5.7,2013-09-14 21:35:00,
2013-09-14 17:50:00,88.0,72.9,29.81,North,0,0.0,3.0,61,0.00,,,-99.99,WeatherLink 5.7,2013-09-14 21:50:00,
2013-09-14 18:05:00,87.9,72.8,29.81,North,0,0.0,4.0,61,0.00,,,-99.99,WeatherLink 5.7,2013-09-14 22:05:00,
2013-09-14 18:20:00,87.2,72.6,29.82,North,0,0.0,8.0,62,0.00,,,-99.99,WeatherLink 5.7,2013-09-14 22:20:00,
2013-09-14 18:35:00,86.4,71.8,29.82,North,0,0.0,6.0,62,0.00,,,-99.99,WeatherLink 5.7,2013-09-14 22:35:00,
2013-09-14 18:50:00,85.9,71.8,29.82,North,0,0.0,4.0,63,0.00,,,-99.99,WeatherLink 5.7,2013-09-14 22:50:00,
2013-09-14 19:06:00,85.5,71.9,29.82,North,0,0.0,1.0,64,0.00,,,-99.99,WeatherLink 5.7,2013-09-14 23:06:00,
2013-09-14 19:20:00,85.0,72.4,29.82,North,-999,0.0,0.0,66,0.00,,,-99.99,WeatherLink 5.7,2013-09-14 23:20:00,
2013-09-14 19:35:00,84.7,72.1,29.82,North,-999,0.0,0.0,66,0.00,,,-99.99,WeatherLink 5.7,2013-09-14 23:35:00,
2013-09-14 19:50:00,84.2,72.0,29.82,North,-999,0.0,0.0,67,0.00,,,-99.99,WeatherLink 5.7,2013-09-14 23:50:00,
2013-09-14 20:05:00,83.7,71.6,29.83,North,-999,0.0,0.0,67,0.00,,,-99.99,WeatherLink 5.7,2013-09-15 00:05:00,
2013-09-14 20:20:00,83.2,71.5,29.83,North,-999,0.0,0.0,68,0.00,,,-99.99,WeatherLink 5.7,2013-09-15 00:20:00,
2013-09-14 20:35:00,82.7,71.5,29.83,North,-999,0.0,0.0,69,0.00,,,-99.99,WeatherLink 5.7,2013-09-15 00:35:00,
2013-09-14 20:50:00,82.2,71.0,29.84,North,-999,0.0,0.0,69,0.00,,,-99.99,WeatherLink 5.7,2013-09-15 00:50:00,
2013-09-14 21:05:00,81.7,71.0,29.86,North,-999,0.0,0.0,70,0.00,,,-99.99,WeatherLink 5.7,2013-09-15 01:05:00,
2013-09-14 21:20:00,81.5,71.2,29.86,North,-999,0.0,0.0,71,0.00,,,-99.99,WeatherLink 5.7,2013-09-15 01:20:00,
2013-09-14 21:35:00,81.2,71.3,29.86,North,-999,0.0,0.0,72,0.00,,,-99.99,WeatherLink 5.7,2013-09-15 01:35:00,
2013-09-14 21:50:00,81.1,71.6,29.87,North,-999,0.0,0.0,73,0.00,,,-99.99,WeatherLink 5.7,2013-09-15 01:50:00,
2013-09-14 22:05:00,80.8,71.3,29.88,North,-999,0.0,0.0,73,0.00,,,-99.99,WeatherLink 5.7,2013-09-15 02:05:00,
2013-09-14 22:20:00,80.6,71.5,29.89,North,-999,0.0,0.0,74,0.00,,,-99.99,WeatherLink 5.7,2013-09-15 02:20:00,
2013-09-14 22:35:00,80.6,71.5,29.89,North,-999,0.0,0.0,74,0.00,,,-99.99,WeatherLink 5.7,2013-09-15 02:35:00,
2013-09-14 22:50:00,80.9,72.6,29.89,North,-999,0.0,0.0,76,0.00,,,-99.99,WeatherLink 5.7,2013-09-15 02:50:00,
2013-09-14 23:05:00,81.1,72.4,29.88,North,0,0.0,6.0,75,0.00,,,-99.99,WeatherLink 5.7,2013-09-15 03:05:00,
2013-09-14 23:20:00,81.1,72.0,29.86,North,0,0.0,7.0,74,0.00,,,-99.99,WeatherLink 5.7,2013-09-15 03:20:00,
2013-09-14 23:35:00,80.8,72.1,29.86,North,-999,0.0,0.0,75,0.00,,,-99.99,WeatherLink 5.7,2013-09-15 03:35:00,
2013-09-14 23:50:00,80.5,71.8,29.88,North,-999,0.0,0.0,75,0.00,,,-99.99,WeatherLink 5.7,2013-09-15 03:50:00,